ワイズ彗星

360P/WISE (2010)

English version
Home page
Updated on October 21, 2017

---------------------------------------------------------------------

・ プロフィール

符号 360P/2010 P4
発見日 2010年8月6日
発見光度
発見者 Wide Field Infrared Survey Explorer (NASA)

・ 写真集

・ 軌道要素

Epoch 2010 July 23.0 TT = JDT 2455400.5
T 2010 July 6.07903 TT                                  MPCW
q   1.8564951            (2000.0)            P               Q
n   0.13828205     Peri.  354.24783     +0.99775577     +0.06507458
a   3.7036123      Node     2.21336     -0.03234039     +0.67459156
e   0.4987340      Incl.   24.10182     -0.05863045     +0.73531730
P   7.13
From 62 observations 2010 Aug. 6-2017 Sept. 20, mean residual 0".5.

・ 光度変化

        m1 = 16.0 + 5 logΔ + 10.0 log r

---------------------------------------------------------------------

軌道要素はM.P.E.C. 2017-S90に掲載されたものです。
光度グラフはComet for Windowsで作成したものです。

---------------------------------------------------------------------

Copyright(C) Seiichi Yoshida (comet@aerith.net). All rights reserved.